Simultaneous Nadir Overpasses (SNOs) Predictions

Prediction of SNOs between GOES-14 and NOAA-20 Satellite Orbit:

Table of predicted SNOs for the next 14.0 days since TLE Epoch: 12/12/2020
Index Date Time (GOES-14) GOES-14 Lat,Lon NOAA-20 Lat,Lon Distance(km) Time Diff (sec)
1 12/13/2020 08:26:26 -0.05,-104.37 0.13,-105.10 83.43 80
2 12/14/2020 08:05:02 -0.04,-104.36 -0.88,-100.57 432.57 80
3 12/15/2020 20:26:58 0.05,-104.11 -0.33,-105.87 200.47 80
4 12/16/2020 20:10:54 0.04,-104.11 0.67,-101.33 316.46 80
5 12/18/2020 08:32:43 -0.06,-104.38 0.44,-106.62 255.54 80
6 12/19/2020 08:11:18 -0.05,-104.37 -0.57,-102.09 260.74 80
7 12/20/2020 20:33:14 0.07,-104.10 -0.69,-107.37 373.27 80
8 12/21/2020 20:17:09 0.06,-104.11 0.32,-102.84 144.06 80
9 12/23/2020 08:39:00 -0.07,-104.40 0.73,-108.14 425.79 80
10 12/24/2020 08:17:34 -0.06,-104.40 -0.22,-103.59 91.00 80
